Wind_Speed
3 4 0 2 3 3 4 2 2 2 2 3 2 6 8 6 4 5 3 2 2 3 4 4 7 10 13 15 15 15 15 17 18 19 19 18 19 20 19 18 16 14 14 15
4 1 2 4 3 3 2 1 3 1 3 1 3 5 7 8 4 4 4 2 1 2 4 6 6 7 9 12 14 14 13 14 14 14 14 13 15 17 19 20 18 16 15 14
4 3 3 3 2 2 1 2 2 1 2 3 4 4 8 6 4 5 5 4 4 4 7 8 8 8 8 10 13 14 15 14 14 13 13 13 14 17 15 19 20 19 15 14
1 2 3 2 2 3 1 2 1 2 1 2 1 5 5 8 8 7 6 5 6 6 8 11 11 11 10 11 12 14 16 18 17 16 16 14 12 10 17 19 20 19 14 15
1 2 3 2 2 2 2 2 1 1 2 1 2 3 1 8 10 10 7 3 4 6 7 9 12 14 15 13 13 16 20 22 21 22 21 19 19 20 22 22 19 18 18 20
1 2 2 1 2 2 1 3 4 3 2 1 2 5 4 7 10 10 5 3 3 5 9 12 14 12 13 14 15 19 22 23 25 26 26 26 24 24 22 24 21 20 20 22
4 2 3 3 2 2 6 3 2 1 0 2 3 4 8 6 6 12 10 3 4 6 8 9 13 12 12 15 18 22 25 28 30 31 33 32 31 28 28 27 23 22 20 22
3 2 2 4 2 2 2 1 3 4 3 3 3 5 2 3 9 9 7 2 4 6 5 7 10 10 12 17 23 29 32 30 32 32 33 30 32 35 33 32 32 25 23 25
3 2 2 4 2 1 2 2 1 4 1 1 2 5 4 5 7 7 7 3 5 7 7 7 10 10 14 21 26 26 28 29 29 29 29 28 28 30 29 30 29 31 30 30
3 1 1 2 1 4 1 4 1 1 1 3 3 6 6 10 16 13 11 8 6 7 8 8 10 14 19 21 25 26 27 28 31 32 31 31 28 30 30 29 27 29 32 31
2 1 0 1 1 4 2 1 4 3 1 3 3 6 5 11 16 18 14 8 7 8 9 8 15 20 21 24 26 27 29 31 33 34 34 33 35 33 30 31 30 29 32 28
0 3 3 2 2 1 0 2 3 3 4 1 1 8 2 6 8 10 13 8 7 9 8 13 19 19 21 24 26 27 30 32 32 33 33 34 35 30 34 36 32 32 30 27
4 0 2 1 1 2 3 3 4 5 2 7 3 6 1 0 2 9 9 8 8 8 12 14 16 19 22 25 27 31 32 32 33 33 34 34 34 34 35 33 32 33 30 29
2 2 4 5 1 1 3 4 5 4 3 5 10 19 15 4 7 10 11 10 9 10 12 12 13 22 26 29 31 31 33 33 33 34 34 34 34 34 34 34 36 34 31 30
2 3 2 4 6 3 6 10 9 11 6 8 17 8 20 7 9 11 8 7 9 12 13 13 16 22 28 29 30 31 32 33 34 33 33 34 35 34 34 34 33 34 34 32
2 1 1 4 2 2 6 14 13 17 14 14 22 25 24 16 3 5 7 8 11 13 13 15 19 25 26 28 30 31 32 33 34 33 33 33 35 35 35 34 34 34 32 30
3 3 2 5 4 6 6 13 12 7 7 9 10 11 2 3 5 7 6 9 11 11 13 18 19 24 27 29 31 32 35 35 33 34 35 35 34 34 34 34 33 32 31 29
5 4 2 3 5 3 3 2 4 10 7 16 11 12 6 5 4 7 9 9 7 13 17 17 23 26 29 31 31 33 33 33 34 35 37 36 34 34 34 32 31 31 29 28
2 3 0 2 3 9 6 2 5 6 5 10 17 17 7 2 4 5 4 2 10 14 21 23 25 28 30 31 31 31 33 35 35 33 37 36 33 35 33 28 32 30 27 25
4 4 2 2 3 6 3 1 3 3 6 4 9 6 3 1 6 7 2 8 14 19 21 23 24 26 26 28 31 31 33 33 33 36 40 38 37 35 26 33 22 28 26 25
3 2 7 5 4 10 11 4 2 2 5 2 5 4 4 4 5 3 9 13 17 19 22 22 22 23 25 29 30 31 33 32 37 41 39 39 37 29 24 24 28 21 23 22
7 7 5 4 4 10 7 4 6 5 1 4 3 3 5 7 7 8 10 12 17 19 21 21 22 24 27 28 29 30 33 37 40 39 38 39 34 25 21 24 19 21 19 21
3 7 5 11 9 2 8 6 4 2 3 4 3 5 5 5 5 8 9 11 15 19 20 22 23 26 27 28 30 30 36 39 40 39 38 36 33 24 19 22 21 18 18 19
4 4 4 1 7 19 13 14 10 7 8 5 5 4 4 5 6 9 9 9 15 16 20 21 24 25 28 30 32 33 36 39 39 37 37 33 27 23 20 19 19 18 18 18
3 5 5 8 12 12 15 13 14 9 5 5 4 5 4 3 6 7 9 11 14 18 19 21 23 24 27 32 33 34 38 38 38 36 34 29 26 22 22 21 20 19 19 20
5 9 5 14 4 7 8 4 3 7 8 8 7 4 4 5 5 7 9 12 15 17 21 22 23 25 29 32 33 33 37 37 37 35 31 29 27 25 22 19 18 21 22 25
Wind_Direction
12 64 4 230 159 129 127 149 261 282 38 85 74 151 173 164 156 160 148 112 67 36 340 2 24 33 38 40 39 36 30 26 21 21 19 16 9 1 358 357 356 353 352 352
30 99 220 123 129 125 130 176 268 276 43 100 184 210 191 186 186 193 181 198 270 321 338 331 339 357 12 15 19 19 14 10 10 10 8 0 353 351 347 344 334 329 333 342
143 168 137 140 101 97 269 195 205 252 54 68 147 252 199 198 186 206 227 245 265 277 293 296 309 322 331 349 356 354 352 346 342 341 337 334 333 332 330 335 333 323 316 328
153 325 145 110 117 127 311 163 87 256 5 278 282 294 217 193 196 217 225 253 273 275 270 273 288 300 309 318 325 338 341 334 326 321 319 317 313 306 313 317 317 318 301 311
170 85 82 97 150 150 202 31 266 182 186 11 187 246 211 172 210 213 213 227 254 261 272 294 300 287 295 311 329 341 338 338 327 318 308 306 303 302 305 303 296 299 298 300
73 300 57 106 89 71 6 110 55 62 108 234 172 207 248 187 208 186 182 193 260 306 313 314 320 313 291 311 324 331 329 327 323 315 305 293 293 297 296 297 291 287 289 297
16 7 339 38 122 32 52 63 306 307 249 255 183 196 268 208 193 166 162 181 304 314 316 315 317 315 305 312 316 319 317 316 314 315 307 299 287 293 292 291 288 281 280 291
154 258 1 351 75 155 49 147 147 272 256 285 261 241 284 238 156 145 149 180 283 290 295 300 312 311 305 308 310 310 309 309 312 312 311 308 296 295 289 286 288 279 273 285
149 253 331 44 351 82 144 69 78 111 101 303 293 285 256 146 182 189 185 218 267 269 274 294 304 302 302 304 306 306 307 304 304 302 303 300 298 294 296 290 290 280 276 280
186 321 46 292 83 49 131 132 147 9 356 291 282 281 251 207 215 214 218 230 268 276 267 271 286 291 301 305 308 307 307 304 305 304 303 300 297 296 289 296 291 291 286 278
127 119 265 32 199 176 98 142 59 111 128 224 294 254 214 222 213 212 211 227 259 282 271 274 290 300 302 306 308 306 307 305 304 301 299 297 298 296 291 294 292 293 287 274
286 133 242 200 146 335 344 196 155 148 199 109 113 266 188 260 232 212 209 230 271 265 290 284 288 295 305 307 305 304 306 307 304 302 300 297 298 293 297 293 287 295 290 274
173 3 331 277 78 25 219 190 106 96 93 200 180 262 46 351 192 209 216 260 286 306 288 289 299 307 307 309 308 309 309 308 306 304 302 300 297 296 295 288 289 293 290 282
90 159 214 207 180 108 232 193 182 153 170 181 225 268 276 230 230 233 251 279 287 279 283 297 305 314 315 314 313 312 311 310 308 307 304 300 298 296 293 289 290 285 284 281
122 220 214 256 244 249 250 240 190 206 198 222 270 250 266 277 268 259 257 269 291 306 315 318 319 318 316 313 313 314 312 310 309 306 305 301 300 299 294 290 287 284 282 276
350 214 62 288 112 165 261 266 229 227 235 255 262 278 284 285 254 245 273 289 298 306 311 317 314 315 315 315 314 313 310 307 307 304 301 301 299 299 295 292 289 285 279 272
132 133 89 262 350 297 265 236 210 184 202 215 225 244 163 198 220 260 270 283 296 308 316 316 315 317 314 314 314 309 308 307 305 304 302 299 296 294 292 291 290 286 281 276
136 128 147 278 333 270 304 251 184 206 219 218 261 268 252 246 259 273 267 270 308 322 318 315 315 316 314 312 311 311 310 311 310 306 303 298 295 293 293 287 287 286 283 277
81 128 250 290 238 303 278 186 171 183 275 236 232 256 264 269 294 259 230 60 325 314 311 313 315 311 310 312 313 314 316 316 312 309 302 299 295 290 290 285 285 287 280 282
81 68 155 141 239 250 253 129 160 151 290 224 200 240 202 72 301 309 143 328 317 311 312 311 312 313 313 318 318 313 312 313 311 309 307 305 294 292 274 297 281 281 277 273
135 188 219 217 262 278 250 176 145 95 271 190 188 185 179 215 238 295 318 315 309 307 310 316 318 314 320 320 318 316 314 313 311 310 310 308 302 297 288 284 291 284 275 275
172 164 201 168 201 279 144 86 190 224 197 179 195 220 230 247 279 292 298 298 310 314 319 321 318 323 321 318 320 319 316 315 317 312 313 309 306 294 292 296 293 287 280 278
236 204 185 188 211 243 203 229 230 210 205 208 219 229 222 252 268 293 296 308 311 316 319 322 327 324 325 326 325 320 320 317 319 316 316 314 313 292 292 293 284 283 284 277
252 166 237 91 212 246 240 253 248 203 221 207 211 206 197 255 293 301 306 310 317 317 321 328 324 323 323 327 322 320 319 325 320 316 318 315 315 298 290 295 291 284 280 275
203 142 236 259 278 276 258 248 257 248 207 202 187 198 226 250 287 291 303 313 316 321 323 324 319 318 318 322 324 325 328 327 322 319 318 318 315 299 288 286 286 283 278 268
194 225 214 267 263 241 263 246 215 200 208 202 191 205 217 228 275 297 304 313 318 325 325 316 314 320 322 324 320 327 331 331 324 322 322 320 317 311 293 285 284 284 283 283
Height
835 839 844 842 842 844 848 853 856 852 851 855 863 866 867 868 870 869 867 866 865 863 862 860 857 856 854 852 849 847 844 842 839 836 834 832 830 827 825 823 820 817 814 811
840 844 839 838 840 843 848 854 855 853 853 854 866 864 864 864 865 865 865 865 864 863 861 859 857 855 853 851 850 848 845 843 840 838 835 833 831 828 825 822 819 816 813 810
843 839 836 837 844 846 850 852 855 853 856 862 865 861 862 862 862 864 864 864 863 862 860 857 856 854 852 851 850 848 846 843 841 838 836 833 830 827 824 820 817 814 811 809
841 836 837 841 845 846 853 847 849 852 857 857 862 849 861 860 861 862 860 861 861 860 858 855 854 852 851 850 849 847 845 842 840 837 834 831 828 824 821 817 814 811 808 806
842 842 843 843 844 842 848 850 853 854 859 863 866 864 841 860 861 858 858 859 859 857 856 854 852 850 848 848 846 844 842 839 837 834 831 828 825 821 817 814 810 807 805 802
845 841 841 843 844 844 848 854 862 868 868 863 862 862 832 854 847 853 854 856 855 854 853 850 848 846 846 845 843 841 838 836 833 830 827 823 819 815 812 809 805 802 799 797
847 847 845 844 845 846 850 858 853 852 856 847 864 865 828 841 846 844 850 852 852 853 851 849 847 844 843 842 841 838 835 831 829 825 821 817 813 810 806 802 798 796 793 791
856 854 851 848 849 853 859 858 853 854 854 856 868 846 825 842 845 846 849 852 853 851 850 848 846 844 842 840 838 835 831 826 823 818 814 810 807 802 798 795 792 789 786 784
861 854 854 853 853 854 859 860 865 873 884 869 856 847 839 847 850 851 850 851 850 849 847 846 844 842 840 837 834 830 825 820 816 811 806 802 799 795 789 787 785 781 778 775
867 856 860 855 854 858 856 863 865 871 856 862 855 859 833 848 845 847 848 847 846 846 844 844 842 839 836 832 827 823 819 813 808 804 799 795 790 787 783 779 775 774 771 767
867 866 859 859 860 860 864 866 875 871 872 862 864 840 832 832 833 836 840 842 843 842 842 840 838 835 830 826 822 816 812 807 802 797 792 787 782 778 775 772 767 764 761 758
871 872 863 858 865 865 864 864 865 859 870 891 891 854 832 834 833 836 836 839 841 841 838 837 833 829 825 821 815 810 806 801 796 790 785 779 774 770 767 763 759 757 752 748
868 870 860 851 863 865 865 867 876 883 888 884 866 829 833 836 835 835 836 837 837 835 835 832 827 823 819 815 810 805 800 794 789 783 778 771 766 763 758 753 750 747 744 741
867 878 861 853 854 866 865 868 874 868 875 862 849 815 814 827 832 831 832 832 833 834 830 826 823 818 814 809 805 800 794 790 783 777 771 764 759 754 749 744 740 737 735 731
871 867 879 874 873 873 866 860 869 864 854 848 816 834 815 822 826 825 829 831 829 826 823 820 817 812 809 805 800 796 790 784 778 771 765 758 752 746 741 735 730 726 724 722
879 869 881 871 875 876 870 858 859 855 852 856 837 833 814 816 823 826 825 827 825 822 820 817 814 811 806 801 795 790 784 777 771 764 756 750 744 738 732 726 721 716 713 711
876 879 884 867 880 873 856 839 833 843 844 833 835 813 819 823 823 822 823 823 820 819 818 814 810 807 802 797 792 784 777 769 761 754 747 740 733 727 722 717 712 707 703 700
882 880 885 879 872 851 813 827 828 829 828 827 822 814 818 818 819 821 819 819 817 817 813 810 806 802 797 792 786 780 771 763 754 746 739 732 725 718 712 707 703 698 694 691
878 878 879 882 885 844 819 825 830 830 815 811 815 810 814 818 820 815 814 816 817 815 811 808 804 799 793 787 780 772 763 755 747 739 730 722 715 708 702 697 693 690 686 683
881 883 876 898 891 861 818 825 826 828 817 806 811 811 814 819 812 803 813 815 814 812 809 805 801 796 789 781 774 765 756 748 740 731 720 712 703 698 691 689 683 681 678 675
881 883 879 881 889 856 826 826 829 827 806 809 810 811 814 814 811 810 812 812 812 809 805 802 797 791 784 776 767 759 750 742 732 722 712 703 694 687 683 679 677 673 670 668
868 880 881 880 886 858 822 830 823 803 807 807 808 809 810 810 811 811 812 810 807 803 800 797 792 785 778 771 763 753 745 735 725 715 704 694 685 680 676 673 669 666 664 662
857 842 849 851 834 812 815 804 803 806 804 806 806 806 808 809 809 810 809 807 804 800 796 792 787 780 773 765 758 748 738 728 718 707 698 687 679 673 670 666 663 661 658 655
845 841 839 833 808 804 805 801 801 802 800 800 802 803 805 806 807 806 805 803 801 797 793 789 783 775 767 760 752 745 734 724 713 701 691 682 674 667 664 661 658 655 651 648
833 838 826 818 806 801 796 795 793 795 796 798 799 801 802 804 804 804 801 800 798 794 790 786 778 771 764 756 747 739 730 719 708 698 687 678 670 662 657 654 651 648 644 641
830 813 817 782 790 794 790 789 790 792 792 794 797 799 800 801 801 801 798 797 795 790 787 781 775 769 761 752 743 735 726 716 705 694 683 674 665 657 650 647 644 641 637 633